Location: Central Springs Elementary School at Manly
(43.2859°N, 93.1959°W)
Time: 06:45:34
(UTC+00:00)

UNISAT 6 - Pass Details

Date: 05 December 2024
Orbit: 584 x 653 km, 97.7° (Epoch: 18 January)

Event Time Altitude Azimuth Distance (km) Brightness Sun altitude
Rises 22:57:56 0° 8° (N) 2,821 ? -4.1°
Reaches altitude 10° 23:00:07 10° 5° (N) 1,918 ? -4.5°
Maximum altitude 23:04:12 60° 286° (WNW) 678 ? -5.1°
Drops below altitude 10° 23:08:19 10° 207° (SSW) 1,925 ? -5.8°
Sets 23:10:30 0° 203° (SSW) 2,832 ? -6.2°
